GW3419 Weather Reports


Display with metric or nautical units.
time (UTC)temp
F
wind
direction
speed
MPH
gust
MPH
rain 1hr
in
rain 24hr
in
rain mn
in
humidity
%
barometer
mb
20260902120317 63 54 3.0 4.0 0.00 0.50 0.50 99 1008.6
20260902115816 63 28 1.0 4.0 0.00 0.50 0.50 99 1008.9
20260902115313 63 147 0.0 2.0 0.00 0.50 0.50 99 1008.7
20260902114809 63 86 2.0 3.0 0.00 0.50 0.50 99 1008.5
20260902114305 63 138 0.0 4.0 0.00 0.50 0.50 99 1008.2
20260902113800 63 42 0.0 3.0 0.00 0.50 0.50 99 1008.3
20260902113255 64 149 2.0 5.0 0.00 0.50 0.50 99 1008.5
20260902112754 64 81 2.0 3.0 0.00 0.50 0.50 99 1008.7
20260902112251 64 120 0.0 3.0 0.00 0.50 0.50 99 1009.0
20260902111746 64 57 0.0 3.0 0.00 0.50 0.50 99 1009.4
20260902111243 64 217 3.0 5.0 0.00 0.50 0.50 99 1009.9
20260902110738 64 226 3.0 8.0 0.00 0.50 0.50 99 1009.9
20260902110234 64 200 4.0 6.0 0.02 0.50 0.50 99 1010.3
20260902105733 64 210 3.0 5.0 0.02 0.50 0.50 99 1009.8
20260902105229 64 196 3.0 3.0 0.00 0.50 0.50 99 1010.6
20260902104724 64 38 2.0 3.0 0.02 0.50 0.50 99 1010.8
20260902104220 64 32 1.0 3.0 0.14 0.50 0.50 99 1011.0
20260902103719 64 82 2.0 5.0 0.09 0.49 0.49 99 1010.8
20260902103214 64 223 3.0 5.0 0.00 0.47 0.47 99 1010.9
20260902102710 64 223 6.0 7.0 0.00 0.47 0.47 99 1010.5
20260902102207 64 77 1.0 3.0 0.00 0.47 0.47 99 1009.6
20260902101702 64 191 4.0 7.0 0.00 0.47 0.47 99 1009.8
20260902101202 63 213 4.0 5.0 0.00 0.47 0.47 99 1009.7
20260902100655 63 218 1.0 6.0 0.00 0.47 0.47 99 1009.6
20260902100151 63 196 4.0 7.0 0.00 0.47 0.47 99 1009.8
20260902095649 62 213 4.0 7.0 0.00 0.47 0.47 99 1009.1
20260902095144 63 125 0.0 4.0 0.00 0.47 0.47 99 1008.2
20260902094639 63 187 2.0 4.0 0.00 0.47 0.47 99 1008.9
20260902094136 63 207 2.0 4.0 0.00 0.47 0.47 99 1008.6
20260902093635 63 157 2.0 4.0 0.00 0.47 0.47 99 1008.6
20260902093129 63 92 2.0 3.0 0.00 0.47 0.47 99 1008.1
20260902092624 63 132 2.0 6.0 0.00 0.47 0.47 99 1008.5
20260902092120 63 176 0.0 3.0 0.00 0.47 0.47 99 1008.8
20260902091615 63 164 3.0 4.0 0.00 0.47 0.47 99 1008.6
20260902091111 63 134 2.0 3.0 0.00 0.47 0.47 99 1008.5
20260902090607 63 184 0.0 3.0 0.00 0.47 0.47 99 1008.9
20260902090105 63 106 2.0 3.0 0.00 0.47 0.47 99 1008.7
20260902085600 63 172 2.0 4.0 0.00 0.47 0.47 99 1008.9
20260902085055 63 130 1.0 4.0 0.00 0.47 0.47 99 1008.9
20260902084551 63 136 3.0 4.0 0.00 0.47 0.47 99 1009.0
20260902084047 63 157 2.0 3.0 0.00 0.47 0.47 99 1008.9
20260902083536 63 161 2.0 5.0 0.00 0.47 0.47 99 1009.1
20260902083036 63 351 0.0 7.0 0.00 0.47 0.47 99 1008.8
20260902082532 63 197 2.0 4.0 0.00 0.47 0.47 99 1009.2
20260902082028 62 175 3.0 4.0 0.00 0.47 0.47 99 1008.8
20260902081525 63 71 4.0 8.0 0.00 0.47 0.47 99 1008.8
20260902081024 63 101 2.0 5.0 0.00 0.47 0.47 99 1008.9
20260902080520 63 69 3.0 4.0 0.00 0.47 0.47 99 1009.0
20260902080016 63 38 2.0 7.0 0.00 0.47 0.47 99 1008.9
20260902075511 63 33 3.0 6.0 0.00 0.47 0.47 99 1008.8
20260902075007 63 63 3.0 9.0 0.02 0.47 0.47 99 1009.0
20260902074502 63 57 7.0 15.0 0.02 0.47 0.47 99 1008.8
20260902074001 63 63 12.0 13.0 0.00 0.47 0.47 99 1009.0
20260902073458 64 39 5.0 24.0 0.00 0.47 0.47 99 1009.0
20260902072954 64 27 11.0 23.0 0.00 0.47 0.47 99 1008.8
20260902072449 65 40 12.0 22.0 0.09 0.47 0.47 99 1009.0
20260902071945 66 34 3.0 16.0 0.09 0.47 0.47 99 1010.4
20260902071445 66 14 6.0 17.0 0.61 0.45 0.45 99 1011.3
20260902070942 66 359 6.0 19.0 1.44 0.35 0.35 99 1012.0
20260902070437 66 22 5.0 22.0 1.98 0.35 0.35 99 1012.4
20260902065936 69 164 4.0 18.0 0.54 0.11 0.11 97 1012.8
20260902065431 70 191 4.0 10.0 0.00 0.02 0.02 95 1010.8
20260902064926 70 27 10.0 13.0 0.00 0.02 0.02 94 1006.4
20260902064421 71 37 4.0 10.0 0.00 0.02 0.02 95 1006.5
20260902063917 71 79 5.0 9.0 0.02 0.02 0.02 95 1007.3
20260902063416 70 24 2.0 6.0 0.07 0.02 0.02 96 1007.9
20260902062912 71 29 2.0 9.0 0.05 0.02 0.02 94 1008.3
20260902062411 71 162 2.0 4.0 0.02 0.01 0.01 95 1007.9
20260902061910 71 145 3.0 5.0 0.02 0.01 0.01 95 1007.5
20260902061406 71 95 3.0 6.0 0.00 0.00 0.00 95 1007.8
20260902060902 71 356 3.0 6.0 0.00 0.00 0.00 95 1008.2
20260902060358 72 336 2.0 6.0 0.00 0.00 0.00 93 1008.0
20260902055854 72 15 0.0 2.0 0.00 0.00 0.00 92 1008.0
20260902055349 72 14 0.0 2.0 0.00 0.00 0.00 93 1007.6
20260902054845 72 81 0.0 3.0 0.00 0.00 0.00 93 1007.7
20260902054340 72 356 1.0 3.0 0.00 0.00 0.00 93 1007.6
20260902053835 72 173 0.0 2.0 0.00 0.00 0.00 92 1007.6
20260902053330 72 63 0.0 3.0 0.00 0.00 0.00 92 1007.9
20260902052829 72 27 2.0 3.0 0.00 0.00 0.00 92 1008.2
20260902052326 72 105 2.0 4.0 0.00 0.00 0.00 92 1008.3
20260902051826 72 155 0.0 2.0 0.02 0.00 0.00 92 1008.8
20260902051320 73 269 0.0 3.0 0.02 0.00 0.00 91 1009.0
20260902050820 73 162 2.0 3.0 0.00 0.00 0.00 90 1008.8
20260902050319 73 179 0.0 2.0 0.00 0.00 0.00 90 1009.0
20260902045815 73 164 1.0 3.0 0.00 0.00 0.00 90 1008.6
20260902045310 72 35 1.0 1.0 0.00 0.00 0.00 90 1008.6
20260902044807 73 42 1.0 2.0 0.00 0.00 0.00 90 1008.6
20260902044302 73 76 0.0 3.0 0.00 0.00 0.00 90 1008.9
20260902043756 73 200 3.0 9.0 0.00 0.00 0.00 89 1009.3
20260902043252 73 191 2.0 3.0 0.00 0.00 0.00 89 1009.0
20260902042751 73 223 3.0 3.0 0.00 0.00 0.00 91 1008.6
20260902042246 72 48 0.0 2.0 0.00 0.00 0.00 92 1008.5
20260902041742 72 18 2.0 3.0 0.00 0.00 0.00 92 1008.2
20260902041236 72 6 1.0 2.0 0.00 0.00 0.00 92 1008.1
20260902040735 72 58 0.0 2.0 0.00 0.00 0.00 92 1008.3
20260902040231 73 53 0.0 2.0 0.00 0.00 0.00 92 1008.5
20260902035729 73 107 1.0 2.0 0.00 0.00 0.00 92 1008.6
20260902035225 72 59 0.0 3.0 0.00 0.00 0.00 93 1008.6
20260902034723 72 31 0.0 2.0 0.00 0.00 0.00 93 1008.8
20260902034218 72 47 0.0 2.0 0.00 0.00 0.00 92 1009.3
20260902033717 73 105 0.0 1.0 0.00 0.00 0.00 92 1009.2
20260902033212 73 212 0.0 1.0 0.00 0.00 0.00 92 1009.0
20260902032710 73 215 1.0 2.0 0.00 0.00 0.00 93 1009.1
20260902032206 73 231 1.0 2.0 0.00 0.00 0.00 92 1008.9
20260902031706 73 316 0.0 2.0 0.00 0.00 0.00 92 1008.9
20260902031201 73 0 1.0 2.0 0.00 0.00 0.00 92 1008.9
20260902030656 73 352 0.0 1.0 0.00 0.00 0.00 91 1009.0
20260902030156 73 309 0.0 1.0 0.00 0.00 0.00 91 1009.2
20260902025650 73 217 0.0 1.0 0.00 0.00 0.00 91 1008.9
20260902025146 73 326 0.0 1.0 0.00 0.00 0.00 90 1009.1
20260902024641 74 304 0.0 1.0 0.00 0.00 0.00 90 1009.1
20260902024136 74 49 0.0 1.0 0.00 0.00 0.00 90 1009.1
20260902023632 74 127 0.0 1.0 0.00 0.00 0.00 89 1009.0
20260902023132 74 117 0.0 1.0 0.00 0.00 0.00 89 1009.1
20260902022631 74 320 0.0 2.0 0.00 0.00 0.00 89 1008.9
20260902022127 74 148 0.0 2.0 0.00 0.00 0.00 89 1009.0
20260902021622 74 132 0.0 1.0 0.00 0.00 0.00 88 1008.8
20260902021117 74 135 0.0 1.0 0.00 0.00 0.00 88 1009.0
20260902020613 74 147 0.0 1.0 0.00 0.00 0.00 87 1009.2
20260902020109 75 217 0.0 1.0 0.00 0.00 0.00 87 1009.2
20260902015604 75 212 0.0 1.0 0.00 0.00 0.00 87 1009.0
20260902015100 75 50 0.0 0.0 0.00 0.00 0.00 87 1008.9
20260902014556 76 142 0.0 1.0 0.00 0.00 0.00 86 1009.0
20260902014051 76 235 0.0 2.0 0.00 0.00 0.00 85 1008.9
20260902013550 76 55 0.0 1.0 0.00 0.00 0.00 84 1008.8
20260902013046 77 217 0.0 1.0 0.00 0.00 0.00 84 1009.0
20260902012541 77 218 2.0 2.0 0.00 0.00 0.00 83 1008.9
20260902012037 77 215 2.0 3.0 0.00 0.00 0.00 83 1009.0
20260902011532 77 211 2.0 3.0 0.00 0.00 0.00 82 1008.9
20260902011031 76 197 1.0 2.0 0.00 0.00 0.00 84 1008.6
20260902010531 76 153 0.0 2.0 0.00 0.00 0.00 84 1009.0
20260902010027 76 145 0.0 1.0 0.00 0.00 0.00 85 1008.8
20260902005525 76 321 0.0 1.0 0.00 0.00 0.00 85 1008.9
20260902005021 77 98 0.0 1.0 0.00 0.00 0.00 84 1008.6
20260902004520 77 269 0.0 2.0 0.00 0.00 0.00 83 1008.9
20260902004016 77 343 0.0 2.0 0.00 0.00 0.00 84 1009.0
20260902003511 78 44 0.0 1.0 0.00 0.00 0.00 83 1008.9
20260902003006 78 337 0.0 2.0 0.00 0.00 0.00 81 1008.9
20260902002502 79 8 0.0 1.0 0.00 0.00 0.00 80 1008.6
20260902001956 79 326 0.0 1.0 0.00 0.00 0.00 78 1008.8
20260902001451 79 320 0.0 1.0 0.00 0.00 0.00 78 1009.0
20260902000946 80 337 1.0 2.0 0.00 0.00 0.00 75 1008.9
20260902000444 80 166 0.0 2.0 0.00 0.00 0.00 73 1008.6
20260901235936 80 224 0.0 2.0 0.00 0.00 0.00 72 1009.0
20260901235431 80 230 0.0 1.0 0.00 0.00 0.00 71 1008.8
20260901234926 81 221 0.0 2.0 0.00 0.00 0.00 70 1008.9
20260901234419 81 205 1.0 3.0 0.00 0.00 0.00 70 1008.8
20260901233914 81 230 0.0 2.0 0.00 0.00 0.00 69 1008.9
20260901233409 81 210 0.0 3.0 0.00 0.00 0.00 68 1008.8
20260901232906 81 219 1.0 3.0 0.00 0.00 0.00 68 1008.9
20260901232400 81 219 1.0 2.0 0.00 0.00 0.00 69 1008.8
20260901231856 82 208 3.0 3.0 0.00 0.00 0.00 68 1008.6
20260901231352 82 206 1.0 3.0 0.00 0.00 0.00 67 1008.7
20260901230848 82 187 0.0 3.0 0.00 0.00 0.00 66 1008.5
20260901230348 82 162 1.0 3.0 0.00 0.00 0.00 66 1008.5
20260901225843 82 197 0.0 2.0 0.00 0.00 0.00 65 1008.2
20260901225342 82 186 2.0 3.0 0.00 0.00 0.00 64 1008.6
20260901224838 83 253 4.0 5.0 0.00 0.00 0.00 64 1009.0
20260901224334 83 246 1.0 3.0 0.00 0.00 0.00 65 1008.6
20260901223830 82 217 2.0 4.0 0.00 0.00 0.00 67 1008.8
20260901223325 83 222 3.0 6.0 0.00 0.00 0.00 66 1008.8
20260901222821 83 218 3.0 4.0 0.00 0.00 0.00 65 1008.7
20260901222317 83 213 4.0 5.0 0.00 0.00 0.00 63 1008.9
20260901221813 83 208 2.0 3.0 0.00 0.00 0.00 63 1009.3
20260901221309 84 195 0.0 2.0 0.00 0.00 0.00 61 1009.2
20260901220808 84 200 1.0 2.0 0.00 0.00 0.00 61 1009.1
20260901220307 84 212 0.0 2.0 0.00 0.00 0.00 59 1008.9
20260901215806 85 147 0.0 2.0 0.00 0.00 0.00 60 1008.8
20260901215306 84 212 0.0 1.0 0.00 0.00 0.00 61 1008.8
20260901214804 84 230 1.0 3.0 0.00 0.00 0.00 59 1008.9
20260901214303 85 230 1.0 3.0 0.00 0.00 0.00 56 1008.6
20260901213758 84 147 2.0 3.0 0.00 0.00 0.00 57 1008.6
20260901213258 84 193 0.0 2.0 0.00 0.00 0.00 58 1008.5
20260901212753 85 202 2.0 4.0 0.00 0.00 0.00 57 1008.9
20260901212248 85 201 2.0 4.0 0.00 0.00 0.00 56 1008.7
20260901211743 85 206 3.0 5.0 0.00 0.00 0.00 54 1008.7
20260901211240 85 196 3.0 5.0 0.00 0.00 0.00 55 1008.7
20260901210736 86 209 4.0 5.0 0.00 0.00 0.00 52 1008.6
20260901210230 87 227 0.0 4.0 0.00 0.00 0.00 50 1008.2
20260901205727 87 154 0.0 3.0 0.00 0.00 0.00 51 1008.2
20260901205226 86 182 2.0 6.0 0.00 0.00 0.00 53 1008.6
20260901204722 85 155 1.0 3.0 0.00 0.00 0.00 56 1008.7
20260901204219 84 199 3.0 3.0 0.00 0.00 0.00 56 1008.8
20260901203713 85 259 2.0 5.0 0.00 0.00 0.00 55 1009.1
20260901203213 85 190 3.0 4.0 0.00 0.00 0.00 54 1008.8
20260901202712 87 218 2.0 3.0 0.00 0.00 0.00 53 1009.1
20260901202208 86 208 2.0 5.0 0.00 0.00 0.00 54 1009.3
20260901201704 86 219 2.0 5.0 0.00 0.00 0.00 53 1009.5
20260901201157 86 221 4.0 8.0 0.00 0.00 0.00 54 1009.3
20260901200657 86 234 3.0 7.0 0.00 0.00 0.00 55 1009.7
20260901200152 85 204 3.0 6.0 0.00 0.00 0.00 55 1009.6
20260901195649 85 213 4.0 5.0 0.00 0.00 0.00 57 1009.4
20260901195144 85 204 4.0 6.0 0.00 0.00 0.00 56 1009.4
20260901194640 85 196 3.0 6.0 0.00 0.00 0.00 56 1009.6
20260901194135 85 212 5.0 8.0 0.00 0.00 0.00 56 1009.5
20260901193630 85 207 3.0 5.0 0.00 0.00 0.00 58 1009.4
20260901193124 86 182 3.0 7.0 0.00 0.00 0.00 56 1009.5
20260901192619 86 185 2.0 7.0 0.00 0.00 0.00 56 1009.5
20260901192114 88 223 1.0 4.0 0.00 0.00 0.00 50 1009.4
20260901191610 87 218 0.0 2.0 0.00 0.00 0.00 48 1009.2
20260901191107 86 159 2.0 5.0 0.00 0.00 0.00 48 1009.3
20260901190602 87 148 2.0 2.0 0.00 0.00 0.00 51 1009.4
20260901190101 87 178 1.0 3.0 0.00 0.00 0.00 50 1009.5
20260901185559 87 171 2.0 2.0 0.00 0.00 0.00 50 1009.5
20260901185058 88 192 1.0 3.0 0.00 0.00 0.00 49 1009.7
20260901184554 87 329 0.0 4.0 0.00 0.00 0.00 48 1009.8
20260901184049 89 206 1.0 3.0 0.00 0.00 0.00 46 1009.9
20260901183543 90 277 2.0 3.0 0.00 0.00 0.00 46 1010.1
20260901183039 89 174 2.0 4.0 0.00 0.00 0.00 48 1010.0
20260901182535 88 18 1.0 3.0 0.00 0.00 0.00 47 1010.0
20260901182030 88 206 0.0 4.0 0.00 0.00 0.00 47 1010.4
20260901181529 88 153 0.0 3.0 0.00 0.00 0.00 46 1010.4
20260901181023 87 193 0.0 3.0 0.00 0.00 0.00 48 1010.2
20260901180521 88 227 3.0 5.0 0.00 0.00 0.00 47 1010.3
20260901180016 89 197 0.0 3.0 0.00 0.00 0.00 49 1010.2
20260901175510 88 275 2.0 5.0 0.00 0.00 0.00 50 1010.0
20260901175004 87 204 1.0 5.0 0.00 0.00 0.00 52 1010.3
20260901174500 88 237 1.0 2.0 0.00 0.00 0.00 53 1010.2
20260901173956 86 173 0.0 3.0 0.00 0.00 0.00 51 1010.2
20260901173446 85 354 2.0 4.0 0.00 0.00 0.00 53 1010.4
20260901172942 86 165 0.0 4.0 0.00 0.00 0.00 57 1010.4
20260901172437 87 197 2.0 4.0 0.00 0.00 0.00 54 1010.5
20260901171935 88 229 0.0 4.0 0.00 0.00 0.00 51 1010.3
20260901171433 87 224 3.0 5.0 0.00 0.00 0.00 46 1010.3
20260901170933 86 183 1.0 3.0 0.00 0.00 0.00 54 1010.1
20260901170428 84 303 2.0 6.0 0.00 0.00 0.00 55 1010.3
20260901165927 85 21 2.0 6.0 0.00 0.00 0.00 58 1010.4
20260901165421 86 7 2.0 4.0 0.00 0.00 0.00 57 1010.5
20260901164918 86 89 0.0 3.0 0.00 0.00 0.00 60 1010.5
20260901164418 84 266 1.0 6.0 0.00 0.00 0.00 60 1010.2
20260901163913 85 11 0.0 4.0 0.00 0.00 0.00 63 1010.3
20260901163408 83 352 3.0 5.0 0.00 0.00 0.00 63 1010.5
20260901162902 83 22 3.0 5.0 0.00 0.00 0.00 64 1010.3
20260901162401 85 77 0.0 5.0 0.00 0.00 0.00 60 1010.6
20260901161855 84 162 2.0 3.0 0.00 0.00 0.00 62 1010.3
20260901161350 83 180 2.0 5.0 0.00 0.00 0.00 65 1010.6
20260901160845 83 284 0.0 3.0 0.00 0.00 0.00 68 1010.6
20260901160342 83 29 3.0 5.0 0.00 0.00 0.00 69 1010.5
20260901155840 82 264 3.0 6.0 0.00 0.00 0.00 71 1010.4
20260901155335 84 30 2.0 6.0 0.00 0.00 0.00 68 1010.4
20260901154832 83 170 0.0 3.0 0.00 0.00 0.00 69 1010.5
20260901154330 81 27 1.0 4.0 0.00 0.00 0.00 72 1010.6
20260901153825 81 19 4.0 7.0 0.00 0.00 0.00 71 1010.2
20260901153320 81 322 3.0 6.0 0.00 0.00 0.00 70 1010.3
20260901152819 82 298 2.0 4.0 0.00 0.00 0.00 72 1010.3
20260901152318 81 186 3.0 5.0 0.00 0.00 0.00 72 1010.4
20260901151814 80 156 0.0 7.0 0.00 0.00 0.00 72 1010.3
20260901151314 80 10 0.0 7.0 0.00 0.00 0.00 76 1010.3
20260901150808 80 39 0.0 5.0 0.00 0.00 0.00 75 1010.6
20260901150306 80 308 2.0 5.0 0.00 0.00 0.00 75 1010.3
20260901145803 80 164 0.0 3.0 0.00 0.00 0.00 76 1010.4
20260901145257 79 352 2.0 6.0 0.00 0.00 0.00 77 1010.7
20260901144753 80 317 2.0 6.0 0.00 0.00 0.00 75 1010.8
20260901144249 81 180 2.0 3.0 0.00 0.00 0.00 71 1010.5
20260901143744 81 164 2.0 3.0 0.00 0.00 0.00 74 1010.3
20260901143240 79 245 2.0 3.0 0.00 0.00 0.00 77 1010.4
20260901142737 78 333 1.0 3.0 0.00 0.00 0.00 78 1010.4
20260901142235 79 241 0.0 2.0 0.00 0.00 0.00 77 1010.6
20260901141731 78 205 0.0 2.0 0.00 0.00 0.00 79 1010.4
20260901141231 77 260 0.0 4.0 0.00 0.00 0.00 79 1010.5
20260901140729 76 311 2.0 3.0 0.00 0.00 0.00 80 1010.4
20260901140228 75 4 0.0 3.0 0.00 0.00 0.00 81 1010.3
20260901135723 75 345 1.0 3.0 0.00 0.00 0.00 80 1010.5
20260901135218 75 312 1.0 2.0 0.00 0.00 0.00 81 1010.3
20260901134714 74 29 1.0 2.0 0.00 0.00 0.00 85 1010.6
20260901134209 72 322 0.0 2.0 0.00 0.00 0.00 88 1010.6
20260901133709 71 49 0.0 1.0 0.00 0.00 0.00 91 1010.5
20260901133208 71 8 0.0 2.0 0.00 0.00 0.00 92 1010.5
20260901132706 70 321 0.0 1.0 0.00 0.00 0.00 93 1010.5
20260901132206 70 337 0.0 1.0 0.00 0.00 0.00 94 1010.4
20260901131702 70 317 1.0 1.0 0.00 0.00 0.00 95 1010.4
20260901131200 69 314 0.0 3.0 0.00 0.00 0.00 96 1010.5
20260901130655 68 24 2.0 2.0 0.00 0.00 0.00 97 1010.5
20260901130154 68 142 0.0 1.0 0.00 0.00 0.00 98 1010.3
20260901125653 68 50 0.0 1.0 0.00 0.00 0.00 98 1010.3
20260901125148 67 13 0.0 2.0 0.00 0.00 0.00 98 1010.2
20260901124643 67 217 0.0 1.0 0.00 0.00 0.00 99 1010.2
20260901124142 67 304 0.0 1.0 0.00 0.00 0.00 99 1010.2
20260901123637 66 351 0.0 1.0 0.00 0.00 0.00 99 1010.3
20260901123137 66 269 0.0 2.0 0.00 0.00 0.00 99 1010.2
20260901122635 66 329 1.0 2.0 0.00 0.00 0.00 99 1010.1
20260901122130 65 320 0.0 2.0 0.00 0.00 0.00 99 1010.1
20260901121625 65 170 0.0 2.0 0.00 0.00 0.00 99 1010.1
20260901121120 64 32 0.0 1.0 0.00 0.00 0.00 99 1010.1
20260901120615 64 287 0.0 2.0 0.00 0.00 0.00 99 1010.2